{"data":{"norad_id":59843,"epoch":"2026-09-21T16:05:37.636800Z","epoch_age_seconds":73350,"freshness":"FRESH","line1":"1 59843U 24097J   26264.67057450 -.00002249  00000+0 -72261-4 0  9995","line2":"2 59843  43.0044 247.2026 0001233 275.6249  84.4462 15.27557162131894","mean_motion":15.27557162,"eccentricity":0.0001233,"inclination_deg":43.0044,"raan_deg":247.2026,"arg_perigee_deg":275.6249,"mean_anomaly_deg":84.4462,"bstar":-7.2261e-5,"rev_number":13189,"period_min":94.268158064516,"perigee_km":482.27148940194,"apogee_km":483.96347475722,"semimajor_km":6861.2544820796,"source":"CELESTRAK","updated_at":"2026-09-22T09:00:49.096703Z"}}